Weather History for Perryton, TX

Change the Weather History Date:

Friday, August 30, 2013

  Actual Average Record
Temperature  
Mean Temperature 85 °F -  
Max Temperature 103 °F 91 °F 106 °F (1984)
Min Temperature 68 °F 62 °F 52 °F (1988)
Cooling Degree Days 20    
Growing Degree Days 35 (Base 50)    
Moisture  
Dew Point 52 °F    
Average Humidity 34    
Maximum Humidity 56    
Minimum Humidity 15    
Precipitation  
Precipitation 0.00 in - - ()
Sea Level Pressure  
Sea Level Pressure 30.01 in    
Wind  
Wind Speed 8 mph (South)    
Max Wind Speed 15 mph    
Max Gust Speed 18 mph    
Visibility 10 miles    
Events      
Averages and records for this station are not official NWS values.
T = Trace of Precipitation, MM = Missing Value Source: NWS Daily Summary

Daily Weather History Graph

Daily Weather History Graph

Search for Another Location

Airport:

Trip Planner

Search our weather history database for the weather conditions in past years. The results will help you decide how hot, cold, wet, or windy it might be!

Date:

Astronomy

Aug. 30, 2013 Rise Set
Actual Time 7:13 AM CDT 8:13 PM CDT
Civil Twilight 6:46 AM CDT 8:39 PM CDT
Nautical Twilight 6:15 AM CDT 9:11 PM CDT
Astronomical Twilight 5:42 AM CDT 9:43 PM CDT
Moon 1:58 AM CDT (8/30) 4:25 PM CDT (8/30)
Length of Visible Light 13h 53m
Length of Day
13h 00m
Waning Crescent, 29% of the Moon is Illuminated
Aug 30
Waning Crescent
Sep 5
New
Sep 12
First Quarter
Sep 19
Full
Sep 26
Last Quarter

Hourly Weather History & Observations

Time (CDT) Temp. Heat Index Dew Point Humidity Pressure Visibility Wind Dir Wind Speed Gust Speed Precip Events Conditions
12:15 AM 73.8 °F - 53.2 °F 49% 30.06 in 10.0 mi SSE 8.1 mph - N/A   Unknown
12:35 AM 73.0 °F - 53.2 °F 50% 30.06 in 10.0 mi South 9.2 mph - N/A   Unknown
12:55 AM 74.7 °F - 52.9 °F 46% 30.06 in 10.0 mi South 8.1 mph - N/A   Unknown
1:15 AM 74.5 °F - 51.6 °F 45% 30.06 in 10.0 mi South 8.1 mph - N/A   Unknown
1:35 AM 74.3 °F - 51.1 °F 44% 30.05 in 10.0 mi SSW 8.1 mph - N/A   Unknown
1:55 AM 72.9 °F - 50.9 °F 46% 30.05 in 10.0 mi South 5.8 mph - N/A   Unknown
2:15 AM 71.6 °F - 50.9 °F 48% 30.05 in 10.0 mi South 8.1 mph - N/A   Unknown
2:35 AM 72.0 °F - 50.9 °F 47% 30.05 in 10.0 mi South 8.1 mph - N/A   Unknown
2:55 AM 70.9 °F - 51.1 °F 49% 30.05 in 10.0 mi South 8.1 mph - N/A   Unknown
3:15 AM 71.2 °F - 51.3 °F 49% 30.05 in 10.0 mi South 9.2 mph - N/A   Unknown
3:35 AM 70.7 °F - 51.3 °F 50% 30.05 in 10.0 mi South 8.1 mph - N/A   Unknown
3:55 AM 69.6 °F - 51.4 °F 52% 30.04 in 10.0 mi South 8.1 mph - N/A   Unknown
4:15 AM 69.8 °F - 52.2 °F 53% 30.04 in 10.0 mi South 8.1 mph - N/A   Unknown
4:35 AM 68.9 °F - 52.2 °F 55% 30.04 in 10.0 mi South 8.1 mph - N/A   Unknown
4:55 AM 70.2 °F - 51.8 °F 52% 30.03 in 10.0 mi South 8.1 mph - N/A   Unknown
5:15 AM 71.6 °F - 52.0 °F 50% 30.03 in 10.0 mi South 9.2 mph - N/A   Unknown
5:35 AM 72.5 °F - 52.7 °F 50% 30.03 in 10.0 mi South 10.4 mph - N/A   Unknown
5:55 AM 72.3 °F - 52.7 °F 50% 30.03 in 10.0 mi South 9.2 mph - N/A   Unknown
6:15 AM 71.6 °F - 52.7 °F 51% 30.03 in 10.0 mi South 8.1 mph - N/A   Unknown
6:35 AM 71.6 °F - 52.9 °F 52% 30.03 in 10.0 mi South 8.1 mph - N/A   Unknown
6:55 AM 70.9 °F - 52.9 °F 53% 30.03 in 10.0 mi South 8.1 mph - N/A   Unknown
7:15 AM 70.0 °F - 52.9 °F 55% 30.04 in 10.0 mi South 6.9 mph - N/A   Unknown
7:35 AM 69.4 °F - 53.1 °F 56% 30.04 in 10.0 mi South 6.9 mph - N/A   Unknown
7:55 AM 70.7 °F - 54.0 °F 55% 30.05 in 10.0 mi South 5.8 mph - N/A   Unknown
9:15 AM 81.0 °F 80.5 °F 54.1 °F 39% 30.05 in 10.0 mi SSW 11.5 mph - N/A   Unknown
9:35 AM 83.5 °F 82.2 °F 53.8 °F 36% 30.06 in 10.0 mi SW 11.5 mph - N/A   Unknown
9:55 AM 84.4 °F 82.9 °F 53.8 °F 35% 30.06 in 10.0 mi WSW 11.5 mph - N/A   Unknown
10:15 AM 86.2 °F 84.4 °F 54.0 °F 33% 30.05 in 10.0 mi WSW 8.1 mph - N/A   Unknown
10:35 AM 88.3 °F 86.3 °F 54.0 °F 31% 30.05 in 10.0 mi SW 10.4 mph - N/A   Unknown
10:55 AM 90.0 °F 87.7 °F 53.8 °F 29% 30.05 in 10.0 mi WSW 9.2 mph - N/A   Unknown
11:15 AM 91.4 °F 89.1 °F 53.6 °F 28% 30.05 in 10.0 mi WSW 10.4 mph - N/A   Unknown
11:35 AM 93.2 °F 90.8 °F 53.8 °F 26% 30.05 in 10.0 mi SW 9.2 mph - N/A   Unknown
11:55 AM 93.6 °F 91.2 °F 54.3 °F 26% 30.04 in 10.0 mi SW 8.1 mph - N/A   Unknown
12:15 PM 95.5 °F 93.4 °F 54.0 °F 25% 30.04 in 10.0 mi SW 8.1 mph - N/A   Unknown
12:35 PM 96.6 °F 94.2 °F 53.4 °F 23% 30.03 in 10.0 mi WSW 6.9 mph - N/A   Unknown
12:55 PM 97.9 °F - 52.7 °F 22% 30.03 in 10.0 mi SW 6.9 mph - N/A   Unknown
1:15 PM 99.5 °F - 51.3 °F 20% 30.03 in 10.0 mi SSW 10.4 mph - N/A   Unknown
1:35 PM 100.9 °F - 49.3 °F 17% 30.02 in 10.0 mi SW 4.6 mph 16.1 mph N/A   Unknown
1:55 PM 101.3 °F - 50.0 °F 18% 30.01 in 10.0 mi South 11.5 mph 18.4 mph N/A   Unknown
2:15 PM 101.7 °F - 50.2 °F 18% 30.00 in 10.0 mi SSW 8.1 mph - N/A   Unknown
2:35 PM 101.7 °F - 49.5 °F 17% 30.00 in 10.0 mi SW 8.1 mph - N/A   Unknown
2:55 PM 102.2 °F - 49.3 °F 17% 29.99 in 10.0 mi SW 6.9 mph - N/A   Unknown
3:15 PM 101.3 °F - 49.5 °F 17% 29.98 in 10.0 mi ENE 4.6 mph - N/A   Unknown
3:35 PM 102.0 °F - 48.4 °F 16% 29.98 in 10.0 mi SW 9.2 mph - N/A   Unknown
3:55 PM 102.4 °F - 48.4 °F 16% 29.97 in 10.0 mi Calm Calm - N/A   Unknown
4:15 PM 102.7 °F - 47.7 °F 16% 29.96 in 10.0 mi NW 3.5 mph - N/A   Unknown
4:35 PM 102.9 °F - 46.6 °F 15% 29.96 in 10.0 mi Calm Calm - N/A   Unknown
4:55 PM 101.7 °F - 47.3 °F 16% 29.96 in 10.0 mi SW 4.6 mph - N/A   Unknown
5:15 PM 102.6 °F - 47.3 °F 15% 29.95 in 10.0 mi SSW 4.6 mph - N/A   Unknown
5:35 PM 100.8 °F - 49.3 °F 18% 29.94 in 10.0 mi Calm Calm - N/A   Unknown
5:55 PM 102.2 °F - 47.3 °F 16% 29.94 in 10.0 mi SE 6.9 mph - N/A   Unknown
6:15 PM 101.7 °F - 47.3 °F 16% 29.94 in 10.0 mi East 5.8 mph - N/A   Unknown
6:35 PM 101.3 °F - 47.3 °F 16% 29.94 in 10.0 mi South 4.6 mph - N/A   Unknown
6:55 PM 100.4 °F - 48.4 °F 17% 29.94 in 10.0 mi SSE 8.1 mph - N/A   Unknown
7:15 PM 98.6 °F - 52.7 °F 21% 29.93 in 10.0 mi SE 13.8 mph - N/A   Unknown
7:35 PM 97.3 °F - 52.0 °F 22% 29.93 in 10.0 mi SE 15.0 mph - N/A   Unknown
7:55 PM 95.0 °F - 52.7 °F 24% 29.94 in 10.0 mi SE 13.8 mph - N/A   Unknown
8:15 PM 93.0 °F - 52.9 °F 26% 29.94 in 10.0 mi SE 12.7 mph - N/A   Unknown
8:35 PM 91.2 °F 88.7 °F 53.1 °F 27% 29.94 in 10.0 mi SSE 15.0 mph - N/A   Unknown
8:55 PM 89.6 °F 87.3 °F 53.4 °F 29% 29.94 in 10.0 mi SE 13.8 mph - N/A   Unknown
9:15 PM 88.7 °F 86.5 °F 53.6 °F 30% 29.94 in 10.0 mi SSE 12.7 mph - N/A   Unknown
9:35 PM 87.3 °F 85.3 °F 53.6 °F 32% 29.95 in 7.0 mi SSE 11.5 mph - N/A   Unknown
9:55 PM 86.2 °F 84.4 °F 53.8 °F 33% 29.96 in 10.0 mi SSE 11.5 mph - N/A   Unknown
10:15 PM 84.4 °F 82.9 °F 53.8 °F 35% 29.96 in 10.0 mi SSE 9.2 mph - N/A   Unknown
10:35 PM 82.6 °F 81.6 °F 54.1 °F 37% 29.96 in 10.0 mi SSE 9.2 mph - N/A   Unknown
10:55 PM 80.6 °F 80.4 °F 54.5 °F 40% 29.96 in 10.0 mi SSE 6.9 mph - N/A   Unknown
11:15 PM 79.0 °F - 54.7 °F 43% 29.96 in 10.0 mi SSE 5.8 mph - N/A   Unknown
11:35 PM 78.1 °F - 55.2 °F 45% 29.96 in 10.0 mi SSE 4.6 mph - N/A   Unknown
11:55 PM 76.5 °F - 55.8 °F 49% 29.96 in 10.0 mi SSE 5.8 mph - N/A   Unknown